Regional Weather Roundup
Issued by NWS

Home | Current Version | Previous Version | Text Only | Print | Product List | Glossary On
Versions: 1 2 3 4 5 6 7 8 9 10 11 12 13 14 15 16 17 18 19 20 21 22 23 24 25 26 27 28 29 30 31 32 33 34 35 36 37 38 39 40 41 42 43 44 45 46 47 48 49 50
000
ASUS43 KTOP 201459
RWRKS

WEATHER ROUNDUP FOR KANSAS
NATIONAL WEATHER SERVICE GOODLAND KS
1000 AM CDT SAT SEP 20 2014

NOTE:  "FAIR" INDICATES FEW OR NO CLOUDS BELOW 12,000 FEET WITH NO
SIGNIFICANT WEATHER AND/OR OBSTRUCTIONS TO VISIBILITY.

KSZ001>006-013>018-027>032-041>047-201600-
NORTHWEST KANSAS

CITY           SKY/WX    TMP DP  RH WIND       PRES   REMARKS
GOODLAND       SUNNY     68  57  68 NE14      30.08R
HAYS           SUNNY     73  63  68 SW9       29.98R
HILL CITY      SUNNY     76  63  64 VRB7      29.96R
RUSSELL        SUNNY     75  64  68 SW15      29.97R
$$

KSZ061>065-074>080-084>089-201600-
SOUTHWEST KANSAS

CITY           SKY/WX    TMP DP  RH WIND       PRES   REMARKS
DODGE CITY     SUNNY     74  63  68 SW13      30.01R
ELKHART          N/A     70  62  76 SW9         N/A
GARDEN CITY    SUNNY     72  64  76 SW13      30.01R
GREAT BEND     SUNNY     75  64  69 SW14      29.98R
LIBERAL        SUNNY     73  64  73 SW14      30.04R
$$

KSZ066>073-081>083-090>101-201600-
SOUTHEAST KANSAS

CITY           SKY/WX    TMP DP  RH WIND       PRES   REMARKS
CHANUTE        CLOUDY    72  70  93 S10       30.05R FOG
HUTCHINSON     SUNNY     77  66  68 S14       30.00R
NEWTON         SUNNY     75  64  69 S13       30.05R
PARSONS        CLOUDY    71  71 100 S8        30.06R FOG
WICHITA INTL   MOSUNNY   77  68  73 S12       30.01R
WICHITA JABRA  SUNNY     75  68  78 S12       30.02R
WINFIELD       MOSUNNY   76  70  82 SW15      30.04R
$$

KSZ007>012-019>026-033>040-048>060-102>105-201600-
NORTHEAST KANSAS

CITY           SKY/WX    TMP DP  RH WIND       PRES   REMARKS
CONCORDIA      SUNNY     76  66  71 SW7       29.97R
EMPORIA        SUNNY     76  70  82 SW13      30.02R
LAWRENCE       SUNNY     76  68  76 SW8       30.00R HAZE
MANHATTAN      SUNNY     79  68  69 SW13      29.97R
OLATHE IND     SUNNY     74  69  85 SW9       30.02R
OLATHE EXE     SUNNY     74  69  85 SW8       30.02R
SALINA         SUNNY     77  66  68 S14       29.98R
TOPEKA BILLARD SUNNY     78  71  79 SW10      29.98S
TOPEKA FORBES  SUNNY     76  69  79 SW12      29.99S
$$



USA.gov is the U.S. government's official web portal to all federal, state and local government web resources and services.